This is the latest recevied weather packets stored in our database for station/object K5WRW-WX. If no packets are shown the sender has not sent any weather packets the latest 10 day(s).
| Time | Temp. | Humidity | Pressure | Rain* | Wind** | Luminosity | Snow |
|---|---|---|---|---|---|---|---|
| 1777901717 | 18.89° C | 67% | 1011 hPa | 0 mm | - | - | - |
| 1777901117 | 18.33° C | 67% | 1011.1 hPa | 0 mm | - | - | - |
| 1777898717 | 17.22° C | 73% | 1011.1 hPa | 0 mm | - | - | - |
| 1777893316 | 17.22° C | 69% | 1010.8 hPa | 0 mm | - | - | - |
| 1777892116 | 17.22° C | 67% | 1010.9 hPa | 0 mm | - | - | - |
| 1777891516 | 17.22° C | 67% | 1011 hPa | 0 mm | - | - | - |
| 1777881316 | 16.67° C | 67% | 1012 hPa | 0 mm | - | - | - |
| 1777880716 | 16.67° C | 67% | 1012 hPa | 0 mm | - | - | - |
| 1777875915 | 17.78° C | 62% | 1013.1 hPa | 0 mm | - | - | - |
| 1777873516 | 18.33° C | 60% | 1013.6 hPa | 0 mm | - | - | - |
| 1777872916 | 18.33° C | 60% | 1013.6 hPa | 0 mm | - | - | - |
| 1777872315 | 18.33° C | 59% | 1013.7 hPa | 0 mm | - | - | - |
| 1777870517 | 18.89° C | 57% | 1014 hPa | 0 mm | - | - | - |
| 1777868117 | 19.44° C | 55% | 1014.1 hPa | 0 mm | - | - | - |
| 1777865717 | 20° C | 53% | 1014.2 hPa | 0 mm | - | - | - |
| 1777865117 | 20° C | 53% | 1013.9 hPa | 0 mm | - | - | - |
| 1777863917 | 20.56° C | 51% | 1013.8 hPa | 0 mm | - | - | - |
| 1777862117 | 21.67° C | 47% | 1013.8 hPa | 0 mm | - | - | - |
| 1777861517 | 21.67° C | 47% | 1013.8 hPa | 0 mm | - | - | - |
| 1777858557 | 23.89° C | 40% | 1013.5 hPa | 0 mm | - | - | - |
| 1777850116 | 26.67° C | 33% | 1013.8 hPa | 0 mm | - | - | - |
| 1777849517 | 26.67° C | 34% | 1013.9 hPa | 0 mm | - | - | - |
| 1777848916 | 27.22° C | 34% | 1014 hPa | 0 mm | - | - | - |
| 1777841716 | 27.22° C | 35% | 1015.4 hPa | 0 mm | - | - | - |
| 1777826115 | 24.44° C | 49% | 1019.1 hPa | 0 mm | - | - | - |
* Rain latest hour (hover to see other rain measurements)
** Current wind speed in m/s (hover to see current wind gust speed)